Regional Weather Roundup
Issued by NWS

Home | Current Version | Previous Version | Graphics & Text | Print | Product List | Glossary Off
Versions: 1 2 3 4 5 6 7 8 9 10 11 12 13 14 15 16 17 18 19 20 21 22 23 24 25 26 27 28 29 30 31 32 33 34 35 36 37 38 39 40 41 42 43 44 45 46 47 48 49 50

000
ASUS43 KDMX 271606
RWRIA

WEATHER ROUNDUP FOR IOWA
NATIONAL WEATHER SERVICE DES MOINES IA
1100 AM CDT SUN MAY 27 2018

NOTE: "FAIR" INDICATES FEW OR NO CLOUDS BELOW 12,000 FEET WITH NO
SIGNIFICANT WEATHER AND/OR OBSTRUCTIONS TO VISIBILITY.

* - THESE STATIONS ARE NOT NWS STATIONS...THUS NOT UNDER NWS
QUALITY CONTROL.  THEY ALSO DO NOT REPORT WEATHER SUCH
AS PRECIPITATION OR FOG.

IAZ001>003-012>014-020>022-031>034-043>046-271700-
   NORTHWEST IOWA

CITY           SKY/WX    TMP DP  RH WIND       PRES   REMARKS
CARROLL *      CLOUDY    93  55  27 W12       29.86S HX  91
CHEROKEE *     CLOUDY    90  61  38 W6        29.84S HX  89
DENISON *      SUNNY     90  63  40 MISG      29.88S HX  90
LE MARS *      SUNNY     93  54  26 SW10      29.83S HX  91
ORANGE CITY *  SUNNY     91  52  25 W10       29.84S HX  89
SHELDON *      SUNNY     93  52  24 SW12      29.82S HX  90
SIOUX CITY     SUNNY     91  64  40 S10       29.83S HX  92
SPENCER        MOSUNNY   91  60  35 SW7       29.84S HX  90
STORM LAKE *   SUNNY     93  52  24 W14       29.86S HX  90
$$

IAZ055>058-069>071-079>083-090>094-271700-
   SOUTHWEST IOWA

CITY           SKY/WX    TMP DP  RH WIND       PRES   REMARKS
ATLANTIC *     SUNNY     90  64  43 VRB5      29.87S HX  91
AUDUBON *      CLOUDY    90  63  40 NW5       29.89R HX  90
CLARINDA *     SUNNY     90  66  45 VRB5      29.90R HX  92
COUNCIL BLFS * SUNNY     88  68  51 SW7       29.87S HX  91
CRESTON *      SUNNY     91  64  40 NW13      29.90S HX  93
HARLAN  *      SUNNY     90  63  40 VRB5G14   29.91R HX  90
LAMONI         SUNNY     88  69  53 W10       29.88S HX  92
RED OAK *      SUNNY     90  64  43 CALM      29.88R HX  91
SHENANDOAH *   SUNNY     90  64  43 SW7       29.88S HX  91
$$

IAZ047>049-059>061-072>074-084-271700-
   CENTRAL IOWA

CITY           SKY/WX    TMP DP  RH WIND       PRES   REMARKS
AMES           CLOUDY    89  72  56 SE3       29.85S HX  96
ANKENY *       CLOUDY    90  72  55 CALM      29.86S HX  96
BOONE *        CLOUDY    93  61  33 W6        29.85S HX  93
CHARITON *     SUNNY     86  72  62 VRB5      29.87S HX  92
DES MOINES     MOSUNNY   88  73  61 S3        29.85S HX  95
GRINNELL*      SUNNY     88  69  53 CALM      29.88S HX  92
KNOXVILLE *    SUNNY     88  72  58 S6        29.85S HX  94
MARSHALLTOWN   CLOUDY    88  69  53 CALM      29.85S HX  92
NEWTON *       SUNNY     90  68  48 N3        29.86S HX  93
PELLA *        SUNNY     88  71  56 CALM      29.87S HX  93
PERRY *        FAIR      90  55  30 NW3       29.86S HX  88
$$

IAZ004>006-015-016-023>025-035-036-271700-
   NORTH CENTRAL IOWA

CITY           SKY/WX    TMP DP  RH WIND       PRES   REMARKS
ALGONA *       CLOUDY    90  61  37 SE6       29.85S HX  89
CLARION *      CLOUDY    93  52  24 SE6       29.86S HX  90
ESTHERVILLE    CLOUDY    89  57  33 S13       29.84S HX  88
FORT DODGE *   MOSUNNY   92  61  35 CALM      29.86R HX  92
MASON CITY     CLOUDY    93  54  26 CALM      29.87S HX  91
FOREST CITY *  FAIR      91  55  29 E3        29.86S HX  89
WEBSTER CITY * CLOUDY    93  55  27 CALM      29.84R HX  91
IOWA FALLS *   FAIR      91  63  39 CALM      29.88R HX  92
$$

IAZ007>011-017>019-026>030-037>042-050>054-066-271700-
   NORTHEAST IOWA

CITY           SKY/WX    TMP DP  RH WIND       PRES   REMARKS
CEDAR RAPIDS   FAIR      87  73  62 S3        29.86R HX  94
CHARLES CITY * FAIR      88  66  48 N5        29.88R HX  90
CLINTON *        N/A     86  71  60 S7        29.88R HX  91
DECORAH *      FAIR      84  68  58 CALM      29.87R HX  87
DUBUQUE        FAIR      85  72  65 SW6       29.88R HX  91
MONTICELLO *   FAIR      88  72  58 CALM      29.86S HX  94
OELWEIN *      FAIR      86  64  48 W3        29.88R HX  87
WATERLOO       FAIR      88  70  55 CALM      29.85R HX  93
$$

IAZ064-065-067-068-078-271700-
   EAST CENTRAL IOWA

CITY           SKY/WX    TMP DP  RH WIND       PRES   REMARKS
DAVENPORT      FAIR      87  70  56 VRB3      29.89R HX  92
IOWA CITY      FAIR      88  73  61 CALM      29.87R HX  95
MT. PLEASANT * SUNNY     88  72  58 SW3       29.87S HX  94
MUSCATINE *    FAIR      88  73  62 VRB5      29.86S HX  96
QUAD CITIES    FAIR      89  72  56 SW7       29.85S HX  96
$$

IAZ062-063-075>077-085>089-095>099-271700-
   SOUTHEAST IOWA

CITY           SKY/WX    TMP DP  RH WIND       PRES   REMARKS
BURLINGTON     SUNNY     86  74  67 CALM      29.87S HX  94
FAIRFIELD *    SUNNY     88  70  55 CALM      29.86S HX  92
FORT MADISON * SUNNY     88  75  66 S3        29.88S HX  97
KEOKUK *       SUNNY     88  73  62 CALM      29.87R HX  96
OSKALOOSA *    FAIR      88  70  54 SE3       29.87R HX  92
CENTERVILLE *    N/A     90  73  58 CALM      29.89S HX  98
OTTUMWA        SUNNY     88  73  61 SW3       29.86S HX  95
WASHINGTON *   SUNNY     88  73  62 S6        29.88R HX  96
$$

ABBREVIATIONS USED IN REMARKS
   TC - TEMPERATURES IN CELSIUS
  WCI - WIND CHILL INDEX
   HX - HEAT INDEX
  VSB - VISIBILITY
$$





USA.gov is the U.S. government's official web portal to all federal, state and local government web resources and services.